This is the latest recevied weather packets stored in our database for station/object WA9NNN-10. If no packets are shown the sender has not sent any weather packets the latest 10 day(s).
| Time | Temp. | Humidity | Pressure | Rain* | Wind** | Luminosity | Snow |
|---|---|---|---|---|---|---|---|
| 1777845396 | 20° C | 42% | 1006.3 hPa | 0 mm | - | - | - |
| 1777845097 | 20° C | 41% | 1006.4 hPa | 0 mm | - | - | - |
| 1777844796 | 20° C | 42% | 1006.3 hPa | 0 mm | - | - | - |
| 1777844497 | 20° C | 41% | 1006.4 hPa | 0 mm | - | - | - |
| 1777844197 | 20° C | 41% | 1006.3 hPa | 0 mm | - | - | - |
| 1777843897 | 19.44° C | 42% | 1006.5 hPa | 0 mm | - | - | - |
| 1777843596 | 19.44° C | 41% | 1006.5 hPa | 0 mm | - | - | - |
| 1777843297 | 18.89° C | 42% | 1006.6 hPa | 0 mm | - | - | - |
| 1777842998 | 18.33° C | 42% | 1006.8 hPa | 0 mm | - | - | - |
| 1777842697 | 18.33° C | 42% | 1006.7 hPa | 0 mm | - | - | - |
| 1777842396 | 18.33° C | 42% | 1006.9 hPa | 0 mm | - | - | - |
| 1777842097 | 18.33° C | 42% | 1006.9 hPa | 0 mm | - | - | - |
| 1777841796 | 18.33° C | 41% | 1007 hPa | 0 mm | - | - | - |
| 1777841497 | 18.89° C | 41% | 1007.1 hPa | 0 mm | - | - | - |
| 1777841197 | 18.89° C | 40% | 1007.3 hPa | 0 mm | - | - | - |
| 1777840897 | 19.44° C | 40% | 1007.4 hPa | 0 mm | - | - | - |
| 1777840597 | 20° C | 41% | 1007.3 hPa | 0 mm | - | - | - |
| 1777840297 | 19.44° C | 41% | 1007.4 hPa | 0 mm | - | - | - |
| 1777839996 | 19.44° C | 41% | 1007.4 hPa | 0 mm | - | - | - |
| 1777839697 | 19.44° C | 43% | 1007.5 hPa | 0 mm | - | - | - |
| 1777839397 | 18.89° C | 43% | 1007.6 hPa | 0 mm | - | - | - |
| 1777839097 | 18.89° C | 43% | 1007.9 hPa | 0 mm | - | - | - |
| 1777838796 | 18.89° C | 43% | 1008.1 hPa | 0 mm | - | - | - |
| 1777838497 | 18.89° C | 44% | 1007.9 hPa | 0 mm | - | - | - |
| 1777838196 | 18.33° C | 44% | 1008.1 hPa | 0 mm | - | - | - |
* Rain latest hour (hover to see other rain measurements)
** Current wind speed in m/s (hover to see current wind gust speed)